Find Starlink 1296

NORAD ID: 45412 Int'l Des: 2020-019 Owner: SPXS Country: US Constellation: starlink operational
LEOCIRCULAR

Live Position

Loading 3D Globe...

About Starlink 1296

Description loading...

Upcoming Passes

Passes for default location (London). Set your location on the main map for personalized predictions.

Altitude History

Loading altitude history...

Two-Line Element Set

1 45412U 20019BE 26103.99652750 .00030550 00000-0 93617-3 0 9995
2 45412 53.1594 324.8893 0002586 198.9193 161.1713 15.33556719335380
Epoch: Apr 13, 2026 • Age: 15 hours

Current Status

Altitude 468.2 km
Velocity 7.63 km/s
Sub-Earth Point -17.87°S, 90°E
Launch Date Mar 18, 2020
Age 6 years
Type internet

Technical Details

Classification Payload
Mass 260.00 kg
Dry Mass 248.00 kg
Total Mass 260.00 kg
Length 0.20 m
Diameter 2.80 m
Span 9.00 m
Shape Box + pan
Manufacturer SPXS
Bus Type Starlink
Phase Status In Orbit
Owner/State SPXS/US

Most Searched